AirNav  
 
 629 users online  

37TX Yates Field Airport
San Saba, Texas, USA


FAA INFORMATION EFFECTIVE 07 DECEMBER 2017

Location

FAA Identifier: 37TX
Lat/Long: 31-19-17.5950N / 098-51-56.1650W
31-19.293250N / 098-51.936083W
31.3215542 / -98.8656014
(estimated)
Elevation: 1418 ft. / 432 m (estimated)
Variation: 08E (1985)
From city: 10 miles NW of SAN SABA, TX
Time zone: UTC -6 (UTC -5 during Daylight Saving Time)
Zip code: 76877

Airport Operations

Airport use: Private use. Permission required prior to landing
Activation date: 11/1990
Control tower: no
ARTCC: HOUSTON CENTER
FSS: SAN ANGELO FLIGHT SERVICE STATION
Attendance: UNATNDD
Wind indicator: yes
Segmented circle: no

Airport Communications

WX AWOS-3 at 81R (9 nm SE): PHONE 325-372-6027

Nearby radio navigation aids

VOR radial/distance  VOR name  Freq  Var
LLOr345/31.8LLANO VORTAC108.2008E
BWDr164/34.6BROWNWOOD VOR/DME108.6008E
AGJr277/38.0GOOCH SPRINGS VORTAC112.5005E

 
NDB name  Hdg/Dist  Freq  Var  ID
BRADY063/25.038007EBBD -... -... -..

Airport Services

Runway Information

Runway 4/22

Dimensions: 2200 x 100 ft. / 671 x 30 m
Surface: turf
Runway edge markings: 04/22 MARKED WITH PVC POSTS.
RUNWAY 4  RUNWAY 22
Latitude: 31-19.206333N31-19.380333N
Longitude: 098-52.121333W098-51.750500W
Elevation: 1391.0 ft.1418.0 ft.
Traffic pattern: leftleft
Runway heading: 053 magnetic, 061 true233 magnetic, 241 true

Airport Ownership and Management from official FAA records

Ownership: Privately-owned
Owner: H W YATES
PO BOX 1427
BAYTOWN, TX 77522
Phone 713-758-5221
Manager: H W YATES
PO BOX 1427
BAYTOWN, TX 77522
Phone 713-758-5221

Airport Operational Statistics

Aircraft based on the field: 1
Single engine airplanes: 1
    

Additional Remarks

WILDLIFE CROSSINGS ON RY.

Instrument Procedures

There are no published instrument procedures at 37TX.

Some nearby airports with instrument procedures:

KBBD - Curtis Field Airport (25 nm W)
KBWD - Brownwood Regional Airport (29 nm N)
KAQO - Llano Municipal Airport (34 nm S)
KLZZ - Lampasas Airport (37 nm E)
KMKN - Comanche County-City Airport (38 nm N)
 
Loc | Ops | Rwys | IFR | FBO | Links
Com | Nav | Svcs | Stats | Notes


 
Area around 37TX (Yates Field Airport)
 
Road maps at: MapQuest Bing Google
 
Aerial photo
No photo
 
Sectional chart

 
Airport distance calculator
Flying to Yates Field Airport? Find the distance to fly.

From to 37TX

Sunrise and sunset
Times for 12-Dec-2017
 Local
(UTC-6)
 Zulu
(UTC)
Morning civil twilight06:5912:59
Sunrise07:2613:26
Sunset17:3223:32
Evening civil twilight17:5923:59

Current date and time
Zulu (UTC)  13-Dec-2017 05:18:26
Local (UTC-6)  12-Dec-2017 23:18:26
 
METAR
KBWD 
29nm N 
130455Z AUTO 00000KT 10SM CLR M02/M08 A3025 RMK AO2
KAQO 
34nm S 
130455Z AUTO 00000KT 10SM CLR 00/M02 A3030 RMK AO2
KLZZ 
37nm E 
130455Z AUTO 00000KT 10SM CLR 01/M04 A3024 RMK AO2 T00111036
KMKN 
38nm N 
130455Z AUTO 24005KT 10SM CLR 06/M05 A3024 RMK AO2 T00591051
KCOM 
42nm NW 
130455Z AUTO 28005KT 10SM CLR 01/M05 A3025 RMK AO2 T00091050
KMNZ 
42nm NE 
130455Z AUTO 26005KT 10SM CLR 03/M04 A3025 RMK AO2 T00261039
KBMQ 
48nm SE 
130453Z AUTO 00000KT 10SM CLR 02/M02 A3028 RMK AO2 SLP252 T00221022
TAF
KBBD 
25nm W 
121730Z 1218/1318 35009KT P6SM SKC FM130000 VRB03KT P6SM SKC FM131700 22010KT P6SM SCT250 AMD NOT SKED
NOTAMs
Click for the latest NOTAMs
NOTAMs are issued by the DoD/FAA and will open in a separate window not controlled by AirNav.

 

 
 

Would you like to see your business listed on this page?

 If your business provides an interesting product or service to pilots, flight crews, aircraft, or users of the Yates Field Airport, you should consider listing it here.  To start the listing process, click on the button below
 
Add a business
 

Other Pages about Yates Field Airport

Update a link
 
Copyright © AirNav, LLC. All rights reserved. Privacy Policy  Contact